FW9412 Weather Reports


Display with metric or nautical units.
time (UTC)temp
F
wind
direction
speed
MPH
gust
MPH
rain 1hr
in
rain 24hr
in
rain mn
in
humidity
%
barometer
mb
20260906082147 59 160 0.0 0.0 0.00 0.00 0.00 99 1015.0
20260906081644 59 155 0.0 0.0 0.00 0.00 0.00 99 1015.3
20260906081138 59 159 0.0 0.0 0.00 0.00 0.00 99 1015.1
20260906080635 59 160 0.0 0.0 0.00 0.00 0.00 99 1015.0
20260906080131 59 157 0.0 0.0 0.00 0.00 0.00 99 1014.9
20260906075630 59 156 0.0 0.0 0.00 0.00 0.00 99 1015.3
20260906075125 59 157 0.0 0.0 0.00 0.00 0.00 99 1014.9
20260906074620 59 159 0.0 0.0 0.00 0.00 0.00 99 1015.0
20260906074119 59 159 0.0 0.0 0.00 0.00 0.00 99 1015.0
20260906073614 60 159 0.0 0.0 0.00 0.00 0.00 99 1015.1
20260906073110 60 160 0.0 0.0 0.00 0.00 0.00 99 1015.1
20260906072604 60 159 0.0 0.0 0.00 0.00 0.00 99 1015.2
20260906072101 60 159 0.0 0.0 0.00 0.00 0.00 99 1014.7
20260906071557 60 160 0.0 0.0 0.00 0.00 0.00 99 1015.2
20260906071051 60 162 0.0 0.0 0.00 0.00 0.00 99 1015.1
20260906070548 60 161 0.0 0.0 0.00 0.00 0.00 99 1015.2
20260906070043 60 159 0.0 0.0 0.00 0.00 0.00 99 1014.9
20260906065542 60 160 0.0 0.0 0.00 0.00 0.00 99 1015.0
20260906065038 60 164 0.0 0.0 0.00 0.00 0.00 99 1014.9
20260906064534 60 158 0.0 0.0 0.00 0.00 0.00 99 1015.0
20260906064029 60 159 0.0 0.0 0.00 0.00 0.00 99 1014.8
20260906063524 60 159 0.0 0.0 0.00 0.00 0.00 99 1015.1
20260906063020 61 160 0.0 0.0 0.00 0.00 0.00 99 1015.2
20260906062515 61 160 0.0 0.0 0.00 0.00 0.00 99 1015.0
20260906062009 61 161 0.0 0.0 0.00 0.00 0.00 99 1015.0
20260906061505 61 158 0.0 0.0 0.00 0.00 0.00 99 1014.9
20260906060959 61 160 0.0 0.0 0.00 0.00 0.00 99 1014.9
20260906060456 60 156 0.0 0.0 0.00 0.00 0.00 99 1014.8
20260906055953 60 156 0.0 0.0 0.00 0.00 0.00 98 1015.0
20260906055448 60 158 0.0 0.0 0.00 0.00 0.00 98 1015.1
20260906054944 60 158 0.0 0.0 0.00 0.00 0.00 98 1015.1
20260906054443 60 159 0.0 0.0 0.00 0.00 0.00 98 1015.4
20260906053939 60 160 0.0 0.0 0.00 0.00 0.00 98 1015.1
20260906053435 60 160 0.0 0.0 0.00 0.00 0.00 98 1014.9
20260906052931 60 160 0.0 0.0 0.00 0.00 0.00 98 1015.1
20260906052427 61 160 0.0 0.0 0.00 0.00 0.00 98 1015.0
20260906051923 61 160 0.0 0.0 0.00 0.00 0.00 98 1014.9
20260906051418 61 159 0.0 0.0 0.00 0.00 0.00 98 1015.0
20260906050914 61 158 0.0 0.0 0.00 0.00 0.00 98 1015.1
20260906050408 62 157 0.0 0.0 0.00 0.00 0.00 98 1015.0
20260906045908 62 159 0.0 0.0 0.00 0.00 0.00 98 1015.1
20260906045406 62 159 0.0 0.0 0.00 0.00 0.00 98 1014.9
20260906044903 62 157 0.0 0.0 0.00 0.00 0.00 98 1014.9
20260906044403 62 156 0.0 0.0 0.00 0.00 0.00 98 1015.2
20260906043858 62 156 0.0 0.0 0.00 0.00 0.00 98 1014.9
20260906043354 62 156 0.0 0.0 0.00 0.00 0.00 98 1015.3
20260906042849 62 156 0.0 0.0 0.00 0.00 0.00 98 1015.0
20260906042348 62 157 0.0 0.0 0.00 0.00 0.00 98 1015.2
20260906041844 62 160 0.0 0.0 0.00 0.00 0.00 98 1015.1
20260906041339 62 160 0.0 0.0 0.00 0.00 0.00 98 1015.2
20260906040839 62 160 0.0 0.0 0.00 0.00 0.00 98 1015.4
20260906040334 62 159 0.0 0.0 0.00 0.00 0.00 97 1015.4
20260906035830 63 163 0.0 0.0 0.00 0.10 0.10 97 1015.3
20260906035325 63 160 0.0 0.0 0.00 0.10 0.10 97 1015.2
20260906034820 63 172 0.0 0.0 0.05 0.10 0.10 97 1015.3
20260906034315 63 160 0.0 0.0 0.52 0.10 0.10 97 1015.2
20260906033811 63 160 0.0 0.0 0.47 0.08 0.08 97 1015.3
20260906033310 63 145 0.0 0.0 0.07 0.01 0.01 97 1015.2
20260906032807 63 151 0.0 0.0 0.00 0.00 0.00 97 1014.9
20260906032305 63 161 0.0 0.0 0.00 0.00 0.00 97 1014.8
20260906031757 63 161 0.0 0.0 0.00 0.00 0.00 97 1014.9
20260906031253 63 161 0.0 0.0 0.00 0.00 0.00 97 1014.8
20260906030752 63 162 0.0 0.0 0.00 0.00 0.00 97 1014.9
20260906030248 63 161 0.0 0.0 0.00 0.00 0.00 97 1015.1
20260906025747 63 162 0.0 0.0 0.00 0.00 0.00 97 1014.9
20260906025241 62 162 0.0 0.0 0.00 0.00 0.00 97 1015.1
20260906024740 62 162 0.0 0.0 0.00 0.00 0.00 96 1015.1
20260906024239 62 155 0.0 0.0 0.00 0.00 0.00 96 1014.9
20260906023735 62 154 0.0 0.0 0.00 0.00 0.00 96 1014.9
20260906023231 62 158 0.0 0.0 0.00 0.00 0.00 96 1015.0
20260906022726 62 158 0.0 0.0 0.00 0.00 0.00 96 1014.8
20260906022221 62 158 0.0 0.0 0.00 0.00 0.00 96 1014.7
20260906021717 62 159 0.0 0.0 0.00 0.00 0.00 96 1014.9
20260906021216 62 159 0.0 0.0 0.00 0.00 0.00 95 1015.1
20260906020711 62 159 0.0 0.0 0.00 0.00 0.00 95 1014.7
20260906020205 62 160 0.0 0.0 0.00 0.00 0.00 95 1014.9
20260906015700 62 160 0.0 0.0 0.00 0.00 0.00 95 1014.8
20260906015159 62 160 0.0 0.0 0.00 0.00 0.00 95 1014.8
20260906014659 62 160 0.0 0.0 0.00 0.00 0.00 95 1014.6
20260906014155 62 161 0.0 0.0 0.00 0.00 0.00 95 1014.8
20260906013650 62 159 0.0 0.0 0.00 0.00 0.00 95 1014.5
20260906013146 62 165 0.0 0.0 0.00 0.00 0.00 94 1014.7
20260906012645 62 161 0.0 0.0 0.00 0.00 0.00 94 1014.5
20260906012140 62 160 0.0 0.0 0.00 0.00 0.00 94 1014.6
20260906011636 62 162 0.0 0.0 0.00 0.00 0.00 94 1014.7
20260906011131 62 162 0.0 0.0 0.00 0.00 0.00 94 1014.5
20260906010626 63 159 0.0 0.0 0.00 0.00 0.00 93 1014.6
20260906010122 63 160 0.0 0.0 0.00 0.00 0.00 93 1014.5
20260906005621 63 173 0.0 0.0 0.00 0.00 0.00 93 1014.5
20260906005121 63 172 0.0 0.0 0.00 0.00 0.00 93 1014.7
20260906004620 63 160 0.0 0.0 0.00 0.00 0.00 93 1014.4
20260906004115 63 160 0.0 0.0 0.00 0.00 0.00 92 1014.6
20260906003610 63 160 0.0 0.0 0.00 0.00 0.00 92 1014.5
20260906003106 63 160 0.0 0.0 0.00 0.00 0.00 92 1014.3
20260906002601 64 166 0.0 0.0 0.00 0.00 0.00 91 1014.7
20260906002055 64 165 0.0 0.0 0.00 0.00 0.00 91 1014.4
20260906001545 64 168 0.0 0.0 0.00 0.00 0.00 90 1014.4
20260906001039 64 27 1.0 1.0 0.00 0.00 0.00 90 1014.7
20260906000535 64 126 0.0 0.0 0.00 0.00 0.00 90 1014.5
20260906000030 64 151 0.0 0.0 0.00 0.00 0.00 89 1014.5
20260905235524 64 164 0.0 0.0 0.00 0.00 0.00 89 1014.3
20260905235019 65 163 0.0 0.0 0.00 0.00 0.00 89 1014.3
20260905234514 65 159 0.0 0.0 0.00 0.00 0.00 88 1014.2
20260905234009 65 144 0.0 0.0 0.00 0.00 0.00 88 1014.2
20260905233504 65 168 0.0 0.0 0.00 0.00 0.00 87 1014.2
20260905233003 66 169 0.0 0.0 0.00 0.00 0.00 86 1014.1
20260905232459 66 147 0.0 0.0 0.00 0.00 0.00 85 1014.2
20260905231954 67 169 0.0 0.0 0.00 0.00 0.00 85 1014.4
20260905231450 67 161 0.0 0.0 0.00 0.00 0.00 84 1014.4
20260905230946 67 168 0.0 0.0 0.00 0.00 0.00 84 1014.3
20260905230445 67 168 0.0 0.0 0.00 0.00 0.00 83 1014.2
20260905225943 68 208 0.0 1.0 0.00 0.00 0.00 83 1014.2
20260905225438 68 155 0.0 0.0 0.00 0.00 0.00 82 1014.1
20260905224933 68 151 1.0 1.0 0.00 0.00 0.00 82 1014.2
20260905224429 68 133 0.0 1.0 0.00 0.00 0.00 82 1014.4
20260905223928 68 149 0.0 0.0 0.00 0.00 0.00 81 1014.4
20260905223427 68 145 0.0 0.0 0.00 0.00 0.00 81 1014.5
20260905222926 68 163 0.0 1.0 0.00 0.00 0.00 80 1014.3
20260905222426 68 158 0.0 0.0 0.00 0.00 0.00 80 1014.4
20260905221922 68 252 0.0 2.0 0.00 0.00 0.00 80 1014.1
20260905221418 68 130 1.0 1.0 0.00 0.00 0.00 80 1014.2
20260905220914 69 200 0.0 0.0 0.00 0.00 0.00 79 1013.9
20260905220410 69 168 0.0 1.0 0.00 0.00 0.00 78 1014.1
20260905215909 69 239 1.0 2.0 0.00 0.00 0.00 79 1013.9
20260905215405 69 169 1.0 1.0 0.00 0.00 0.00 78 1013.8
20260905214901 69 170 1.0 1.0 0.00 0.00 0.00 78 1013.7
20260905214356 69 237 1.0 1.0 0.00 0.00 0.00 78 1013.6
20260905213851 69 196 1.0 1.0 0.00 0.00 0.00 77 1013.7
20260905213347 69 141 1.0 2.0 0.00 0.00 0.00 76 1013.4
20260905212842 70 270 2.0 2.0 0.00 0.00 0.00 76 1013.5
20260905212342 70 132 1.0 2.0 0.00 0.00 0.00 76 1013.4
20260905211836 70 210 1.0 2.0 0.00 0.00 0.00 76 1013.3
20260905211332 70 222 2.0 2.0 0.00 0.00 0.00 76 1013.3
20260905210828 70 169 1.0 1.0 0.00 0.00 0.00 76 1013.3
20260905210328 70 148 0.0 0.0 0.00 0.00 0.00 74 1013.4
20260905205827 70 214 2.0 2.0 0.00 0.00 0.00 75 1013.5
20260905205321 69 177 1.0 1.0 0.00 0.00 0.00 77 1013.5
20260905204821 70 156 0.0 0.0 0.00 0.00 0.00 76 1013.3
20260905204317 71 126 1.0 1.0 0.00 0.00 0.00 75 1013.4
20260905203815 71 57 2.0 3.0 0.00 0.00 0.00 75 1013.4
20260905203312 71 156 0.0 0.0 0.00 0.00 0.00 75 1013.5
20260905202807 71 253 2.0 3.0 0.00 0.00 0.00 74 1013.3
20260905202301 71 97 0.0 1.0 0.00 0.00 0.00 72 1013.5
20260905201757 72 121 1.0 2.0 0.00 0.00 0.00 75 1013.4
20260905201252 71 184 1.0 2.0 0.00 0.00 0.00 74 1013.3
20260905200742 71 199 2.0 2.0 0.00 0.00 0.00 74 1013.5
20260905200238 71 240 2.0 2.0 0.00 0.00 0.00 75 1013.3
20260905195735 71 330 2.0 2.0 0.00 0.00 0.00 74 1013.4
20260905195230 71 97 0.0 1.0 0.00 0.00 0.00 73 1013.2
20260905194726 72 184 1.0 2.0 0.00 0.00 0.00 72 1013.4
20260905194226 71 102 2.0 2.0 0.00 0.00 0.00 74 1013.2
20260905193725 71 226 1.0 2.0 0.00 0.00 0.00 72 1013.4
20260905193220 71 186 1.0 1.0 0.00 0.00 0.00 72 1013.3
20260905192716 71 222 3.0 3.0 0.00 0.00 0.00 75 1013.2
20260905192212 72 130 1.0 1.0 0.00 0.00 0.00 74 1013.3
20260905191711 71 336 2.0 2.0 0.00 0.00 0.00 77 1013.1
20260905191209 70 169 2.0 2.0 0.00 0.00 0.00 79 1013.6
20260905190708 71 207 1.0 1.0 0.00 0.00 0.00 77 1013.2
20260905190207 70 203 1.0 1.0 0.00 0.00 0.00 75 1013.1
20260905185706 70 181 2.0 3.0 0.00 0.00 0.00 74 1013.3
20260905185201 70 146 2.0 3.0 0.00 0.00 0.00 74 1013.3
20260905184701 71 209 2.0 3.0 0.00 0.00 0.00 75 1013.2
20260905184200 71 196 1.0 1.0 0.00 0.00 0.00 75 1013.2
20260905183654 71 161 0.0 0.0 0.00 0.00 0.00 75 1013.3
20260905183149 71 180 1.0 1.0 0.00 0.00 0.00 76 1013.3
20260905182648 71 98 1.0 2.0 0.00 0.00 0.00 75 1013.2
20260905182143 71 157 1.0 2.0 0.00 0.00 0.00 73 1013.3
20260905181638 71 207 1.0 1.0 0.00 0.00 0.00 72 1013.2
20260905181137 70 28 1.0 2.0 0.00 0.00 0.00 75 1013.3
20260905180632 70 168 0.0 0.0 0.00 0.00 0.00 76 1013.4
20260905180127 71 170 0.0 0.0 0.00 0.00 0.00 74 1013.5
20260905175626 71 170 0.0 1.0 0.00 0.00 0.00 71 1013.4
20260905175122 71 180 1.0 1.0 0.00 0.00 0.00 71 1013.1
20260905174617 70 129 0.0 1.0 0.00 0.00 0.00 72 1013.3
20260905174113 71 191 0.0 1.0 0.00 0.00 0.00 72 1013.2
20260905173609 71 171 1.0 1.0 0.00 0.00 0.00 74 1013.4
20260905173104 69 288 2.0 2.0 0.00 0.00 0.00 74 1013.2
20260905172603 69 163 0.0 0.0 0.00 0.00 0.00 76 1013.3
20260905172058 69 139 0.0 1.0 0.00 0.00 0.00 75 1013.4
20260905171555 70 144 0.0 0.0 0.00 0.00 0.00 73 1013.3
20260905171050 71 192 2.0 3.0 0.00 0.00 0.00 73 1013.4
20260905170547 70 129 1.0 1.0 0.00 0.00 0.00 74 1013.3
20260905170042 70 161 0.0 0.0 0.00 0.00 0.00 74 1013.6
20260905165537 70 200 1.0 2.0 0.00 0.00 0.00 73 1013.3
20260905165032 69 165 0.0 0.0 0.00 0.00 0.00 77 1013.6
20260905164526 70 207 1.0 1.0 0.00 0.00 0.00 75 1013.5
20260905164021 70 168 0.0 0.0 0.00 0.00 0.00 75 1013.3
20260905163517 71 185 1.0 1.0 0.00 0.00 0.00 75 1013.4
20260905163013 71 262 1.0 2.0 0.00 0.00 0.00 74 1013.6
20260905162508 70 195 0.0 0.0 0.00 0.00 0.00 72 1013.5
20260905162003 69 155 0.0 0.0 0.00 0.00 0.00 74 1013.6
20260905161503 69 147 0.0 0.0 0.00 0.00 0.00 78 1013.7
20260905161000 70 170 0.0 1.0 0.00 0.00 0.00 77 1013.6
20260905160500 70 142 1.0 1.0 0.00 0.00 0.00 76 1013.7
20260905155959 70 147 1.0 2.0 0.00 0.00 0.00 77 1013.7
20260905155455 69 273 2.0 2.0 0.00 0.00 0.00 78 1013.4
20260905154953 70 164 0.0 0.0 0.00 0.00 0.00 77 1013.5
20260905154449 70 96 1.0 1.0 0.00 0.00 0.00 79 1013.5
20260905153944 69 99 1.0 1.0 0.00 0.00 0.00 79 1013.8
20260905153440 68 144 1.0 2.0 0.00 0.00 0.00 78 1013.6
20260905152939 68 145 1.0 1.0 0.00 0.00 0.00 80 1013.7
20260905152439 67 158 1.0 1.0 0.00 0.00 0.00 83 1013.7
20260905151939 67 116 0.0 1.0 0.00 0.00 0.00 83 1013.6
20260905151435 68 177 0.0 0.0 0.00 0.00 0.00 82 1013.7
20260905150930 68 141 0.0 1.0 0.00 0.00 0.00 82 1013.8
20260905150430 68 202 0.0 2.0 0.00 0.00 0.00 81 1013.8
20260905145926 68 200 1.0 1.0 0.00 0.00 0.00 81 1013.9
20260905145422 68 173 1.0 1.0 0.00 0.00 0.00 82 1013.9
20260905144921 67 311 2.0 3.0 0.00 0.00 0.00 82 1013.8
20260905144417 68 146 0.0 0.0 0.00 0.00 0.00 83 1014.1
20260905143915 67 311 1.0 2.0 0.00 0.00 0.00 83 1013.7
20260905143409 67 198 0.0 0.0 0.00 0.00 0.00 84 1013.7
20260905142909 67 115 1.0 2.0 0.00 0.00 0.00 85 1013.6
20260905142408 67 223 2.0 2.0 0.00 0.00 0.00 85 1013.7
20260905141904 66 165 0.0 0.0 0.00 0.00 0.00 87 1013.8
20260905141353 66 142 0.0 1.0 0.00 0.00 0.00 88 1013.8
20260905140849 66 176 0.0 1.0 0.00 0.00 0.00 88 1013.6
20260905140349 65 142 0.0 0.0 0.00 0.00 0.00 87 1013.9
20260905135848 66 166 1.0 1.0 0.00 0.00 0.00 89 1013.7
20260905135344 65 132 0.0 1.0 0.00 0.00 0.00 89 1013.5
20260905134839 65 139 0.0 1.0 0.00 0.00 0.00 91 1013.6
20260905134337 64 182 1.0 1.0 0.00 0.00 0.00 92 1013.6
20260905133832 65 157 0.0 0.0 0.00 0.00 0.00 91 1013.8
20260905133328 65 139 0.0 0.0 0.00 0.00 0.00 92 1013.5
20260905132826 64 158 0.0 0.0 0.00 0.00 0.00 93 1013.6
20260905132317 64 171 0.0 0.0 0.00 0.00 0.00 94 1013.5
20260905131816 64 172 0.0 0.0 0.00 0.00 0.00 94 1013.7
20260905131312 64 155 0.0 0.0 0.00 0.00 0.00 94 1013.5
20260905130808 63 168 0.0 0.0 0.00 0.00 0.00 95 1013.9
20260905130306 63 181 0.0 0.0 0.00 0.00 0.00 95 1013.7
20260905125801 63 181 0.0 0.0 0.00 0.00 0.00 96 1013.8
20260905125256 62 169 0.0 0.0 0.00 0.00 0.00 96 1013.9
20260905124753 62 165 0.0 0.0 0.00 0.00 0.00 96 1013.8
20260905124248 62 166 0.0 0.0 0.00 0.00 0.00 97 1013.9
20260905123743 62 160 0.0 0.0 0.00 0.00 0.00 97 1013.8
20260905123240 62 161 0.0 0.0 0.00 0.00 0.00 97 1013.5
20260905122735 61 161 0.0 0.0 0.00 0.00 0.00 97 1013.7
20260905122234 61 160 0.0 0.0 0.00 0.00 0.00 97 1013.8
20260905121729 61 160 0.0 0.0 0.00 0.00 0.00 97 1013.9
20260905121226 61 160 0.0 0.0 0.00 0.00 0.00 97 1013.7
20260905120724 61 154 0.0 0.0 0.00 0.00 0.00 97 1013.6
20260905120219 61 154 0.0 0.0 0.00 0.00 0.00 97 1013.6
20260905115714 61 157 0.0 0.0 0.00 0.00 0.00 97 1013.5
20260905115209 60 157 0.0 0.0 0.00 0.00 0.00 97 1013.6
20260905114709 60 156 0.0 0.0 0.00 0.00 0.00 97 1013.5
20260905114207 60 156 0.0 0.0 0.00 0.00 0.00 97 1013.5
20260905113706 60 156 0.0 0.0 0.00 0.00 0.00 97 1013.5
20260905113203 60 156 0.0 0.0 0.00 0.00 0.00 97 1013.3
20260905112702 60 156 0.0 0.0 0.00 0.00 0.00 97 1013.3
20260905112158 60 156 0.0 0.0 0.00 0.00 0.00 97 1013.2
20260905111657 60 156 0.0 0.0 0.00 0.00 0.00 97 1013.4
20260905111157 60 156 0.0 0.0 0.00 0.00 0.00 98 1013.2
20260905110656 60 156 0.0 0.0 0.00 0.00 0.00 98 1013.3
20260905110151 60 156 0.0 0.0 0.00 0.00 0.00 98 1013.1
20260905105647 60 155 0.0 0.0 0.00 0.00 0.00 98 1013.1
20260905105145 59 155 0.0 0.0 0.00 0.00 0.00 97 1013.1
20260905104641 59 155 0.0 0.0 0.00 0.00 0.00 97 1013.0
20260905104136 59 155 0.0 0.0 0.00 0.00 0.00 97 1012.7
20260905103632 60 155 0.0 0.0 0.00 0.00 0.00 97 1012.7
20260905103127 60 155 0.0 0.0 0.00 0.00 0.00 97 1012.7
20260905102623 60 155 0.0 0.0 0.00 0.00 0.00 97 1012.7
20260905102120 60 156 0.0 0.0 0.00 0.00 0.00 97 1012.5
20260905101618 60 155 0.0 0.0 0.00 0.00 0.00 97 1012.8
20260905101116 60 155 0.0 0.0 0.00 0.00 0.00 97 1012.6
20260905100612 60 155 0.0 0.0 0.00 0.00 0.00 97 1012.5
20260905100108 60 155 0.0 0.0 0.00 0.00 0.00 97 1012.6
20260905095601 60 155 0.0 0.0 0.00 0.00 0.00 97 1012.4
20260905095056 60 155 0.0 0.0 0.00 0.00 0.00 97 1012.5
20260905094551 60 155 0.0 0.0 0.00 0.00 0.00 97 1012.3
20260905094050 60 155 0.0 0.0 0.00 0.00 0.00 97 1012.5
20260905093545 60 155 0.0 0.0 0.00 0.00 0.00 97 1012.5
20260905093042 60 155 0.0 0.0 0.00 0.00 0.00 97 1012.4
20260905092541 60 155 0.0 0.0 0.00 0.00 0.00 97 1012.6
20260905092038 60 155 0.0 0.0 0.00 0.00 0.00 97 1012.4
20260905091536 60 155 0.0 0.0 0.00 0.00 0.00 97 1012.4
20260905091031 60 155 0.0 0.0 0.00 0.00 0.00 97 1012.7
20260905090531 60 155 0.0 0.0 0.00 0.00 0.00 97 1012.7
20260905090026 60 155 0.0 0.0 0.00 0.00 0.00 97 1012.7
20260905085524 60 155 0.0 0.0 0.00 0.00 0.00 97 1012.8
20260905085021 60 155 0.0 0.0 0.00 0.00 0.00 97 1012.7
20260905084520 60 155 0.0 0.0 0.00 0.00 0.00 97 1012.7
20260905084015 60 155 0.0 0.0 0.00 0.00 0.00 97 1012.8
20260905083510 61 155 0.0 0.0 0.00 0.00 0.00 97 1012.9
20260905083007 61 155 0.0 0.0 0.00 0.00 0.00 97 1012.6
20260905082502 61 155 0.0 0.0 0.00 0.00 0.00 97 1012.6